Location: Colonial Observatory
(40.1250°N, 75.3100°W)
Time: 09:40:28
(UTC-04:00)

Tiangong 2 - Visible Passes

Search period start: 26 May 2018 00:00
Search period end: 05 June 2018 00:00
Orbit: 382 x 385 km, 42.8° (Epoch: 26 May)

Date Brightness Start Highest point End Pass type
(mag) Time Alt. Az. Time Alt. Az. Time Alt. Az.
26 May 1.8 21:21:12 10° W 21:24:19 52° N 21:27:24 10° ENE visible
26 May 2.4 22:58:07 10° WNW 23:00:16 38° NW 23:00:16 38° NW visible
27 May 1.7 21:58:16 10° WNW 22:01:22 52° N 22:03:04 23° ENE visible
27 May 4.1 23:35:02 10° WNW 23:35:15 12° WNW 23:35:15 12° WNW visible
28 May 1.9 20:58:22 10° WNW 21:01:27 49° N 21:04:32 10° ENE visible
28 May 1.2 22:35:11 10° WNW 22:38:01 69° WNW 22:38:01 69° WNW visible
29 May 1.4 21:35:21 10° WNW 21:38:29 63° NNE 21:40:45 17° E visible
29 May 3.7 23:12:11 10° W 23:12:56 15° W 23:12:56 15° W visible
30 May 1.0 22:12:14 10° WNW 22:15:22 61° SSW 22:15:39 57° S visible
31 May 1.0 21:12:22 10° WNW 21:15:32 86° NNE 21:18:23 12° ESE visible
31 May 3.5 22:49:32 10° W 22:50:34 16° WSW 22:50:34 16° WSW visible
01 Jun 1.9 21:49:21 10° W 21:52:17 36° SSW 21:53:19 27° SSE visible
02 Jun 3.7 22:27:28 10° WSW 22:28:16 12° SW 22:28:16 12° SW visible
03 Jun 2.9 21:26:39 10° W 21:29:08 21° SSW 21:31:04 13° SSE visible
